AO-07 1 07530U 74089B 19030.84293177 -.00000023 00000-0 13600-3 0 9996 2 07530 101.7242 0.0401 0011842 255.4804 133.9133 12.53636576 23128 UO-11 1 14781U 84021B 19031.65871269 .00000076 00000-0 15433-4 0 9997 2 14781 97.6256 62.7967 0009718 58.8467 301.3700 14.83060422878308 LO-19 1 20442U 90005G 19031.06175399 -.00000001 00000-0 15765-4 0 9990 2 20442 98.6348 333.4053 0011402 192.9747 167.1145 14.32916227516521 HUBBLE 1 20580U 90037B 19030.49131736 .00000414 00000-0 14283-4 0 9992 2 20580 28.4704 52.3536 0002977 68.9066 64.6903 15.09165153379841 MET-2/21 1 22782U 93055A 19031.22354589 -.00000011 00000-0 -22937-4 0 9996 2 22782 82.5481 272.9518 0021667 204.4014 274.0663 13.83815443283711 AO-27 1 22825U 93061C 19031.17529914 -.00000009 00000-0 14586-4 0 9998 2 22825 98.8905 16.7436 0009188 47.3338 312.8616 14.30050062322152 IO-26 1 22826U 93061D 19031.69885334 .00000008 00000-0 20935-4 0 9990 2 22826 98.8845 17.2870 0009548 35.5569 324.6247 14.30383030322424 FO-29 1 24278U 96046B 19031.05188198 -.00000015 00000-0 23042-4 0 9994 2 24278 98.5160 203.4082 0349509 239.5597 117.0584 13.53088955109051 NOAA-15 1 25338U 98030A 19031.60104166 .00000021 00000-0 27503-4 0 9993 2 25338 98.7578 53.0372 0009486 285.6003 74.4129 14.25893213 77568 GO-32 1 25397U 98043D 19031.09544948 -.00000023 00000-0 89704-5 0 9996 2 25397 98.6754 333.0245 0002386 82.9060 277.2390 14.23659375 68156 ISS 1 25544U 98067A 19031.91780876 .00001096 00000-0 24541-4 0 9996 2 25544 51.6428 318.9300 0004991 338.0808 134.8171 15.53212623154088 NO-44 1 26931U 01043C 19031.20956694 -.00000037 00000-0 17548-4 0 9994 2 26931 67.0524 1.0261 0005522 266.8170 93.2299 14.30530770905166 SO-50 1 27607U 02058C 19031.82662934 -.00000025 00000-0 17342-4 0 9990 2 27607 64.5552 111.0921 0081555 282.6766 76.5228 14.75516024866697 CO-55 1 27844U 03031E 19030.98355345 .00000051 00000-0 42549-4 0 9991 2 27844 98.6860 41.2571 0010840 74.5651 285.6724 14.22157428808573 CO-57 1 27848U 03031J 19030.93635010 .00000033 00000-0 34970-4 0 9999 2 27848 098.6942 041.6775 0010777 084.6745 275.5662 14.21755469808390 RS-22 1 27939U 03042A 19031.83839971 .00000067 00000-0 20549-4 0 9998 2 27939 98.0172 170.5270 0013773 140.0372 220.1850 14.66750711820331 NOAA-18 1 28654U 05018A 19031.56927239 .00000049 00000-0 51464-4 0 9993 2 28654 99.1172 76.3330 0014046 202.6829 157.3722 14.12401332706025 CO-58 1 28895U 05043F 19030.86733921 .00000115 00000-0 30865-4 0 9999 2 28895 97.9361 178.5410 0018015 72.0994 288.2172 14.63626034707189 Falconsat-3 1 30776U 07006E 19031.81700819 .00001937 00000-0 56260-4 0 9997 2 30776 35.4343 250.1888 0003714 297.3281 62.7067 15.35528590659478 CO-65 1 32785U 08021C 19031.18463016 .00000192 00000-0 26340-4 0 9990 2 32785 97.5470 37.4596 0013255 9.1720 350.9737 14.88242271583085 AAUSAT2 1 32788U 08021F 19031.00280632 .00000770 00000-0 76111-4 0 9998 2 32788 97.5059 52.8147 0010528 309.7592 50.2700 14.94585524584203 DO-64 1 32789U 08021G 19030.62524262 .00001445 00000-0 10153-3 0 9999 2 32789 97.4842 84.3717 0011202 236.4799 123.5359 15.06616945586023 CO-66 1 32791U 08021J 19031.70321753 .00000386 00000-0 44676-4 0 9993 2 32791 97.5298 43.7527 0012889 344.0755 16.0057 14.90723863583556 RS-30 1 32953U 08025A 19031.61451344 .00000021 00000-0 75656-4 0 9995 2 32953 82.4995 230.6116 0019856 71.2276 289.0955 12.43087481485153 PRISM 1 33493U 09002B 19031.72936552 .00000963 00000-0 90282-4 0 9999 2 33493 98.1222 307.4596 0014060 282.8741 77.0869 14.96501073544528 NOAA-19 1 33591U 09005A 19031.61551584 .00000068 00000-0 62314-4 0 9998 2 33591 99.1686 19.4783 0014733 48.3965 311.8465 14.12331965514426 TISAT-1 1 36799U 10035E 19031.37285627 .00000302 00000-0 36676-4 0 9994 2 36799 98.1339 179.1205 0012563 174.0138 186.1232 14.90991894464152 JUGNU 1 37839U 11058B 19031.51425407 .00000300 00000-0 17738-4 0 9990 2 37839 19.9619 92.6923 0018676 243.9433 248.7064 14.12640606377697 SRMSAT 1 37841U 11058D 19031.49586890 .00000295 00000-0 17077-4 0 9993 2 37841 19.9713 146.7201 0011919 117.9663 320.3441 14.10623710377155 AO-71 1 37854U 11061E 19030.79648855 .00001281 00000-0 73317-4 0 9998 2 37854 101.7141 217.5643 0161796 118.2332 243.5321 15.06099804396080 HRBE 1 37855U 11061F 19031.14231256 .00001124 00000-0 64289-4 0 9996 2 37855 101.7265 215.5103 0174608 127.3321 234.3945 15.05097439395936 ALMASAT-1 1 38078U 12006B 19031.81991198 .00018509 39265-5 13548-3 0 9992 2 38078 69.4294 298.0569 0191760 117.2573 276.6480 15.53447367376016 HORYU-2 1 38340U 12025D 19031.52340288 .00000155 00000-0 30797-4 0 9995 2 38340 98.3467 65.8406 0011224 198.3815 161.6989 14.75660964360783 RS-40 1 38735U 12041C 19031.78264687 .00000017 00000-0 55103-4 0 9992 2 38735 82.4790 314.0851 0015993 173.6820 186.4464 12.42577338295421 BEESAT-3 1 39135U 13015F 19031.46266073 .00001020 00000-0 60934-4 0 9998 2 39135 64.8707 124.5368 0010341 268.3938 91.6004 15.17172233319276 BEESAT-2 1 39136U 13015G 19031.18474310 .00000738 00000-0 47496-4 0 9996 2 39136 64.8699 128.8430 0009535 288.5249 71.4840 15.16607876319163 ZACUBE-1 1 39417U 13066B 19031.27509129 .00000189 00000-0 30023-4 0 9999 2 39417 97.5706 52.5001 0060230 126.9932 233.6816 14.81046996280553 TRITON-1 1 39427U 13066M 19031.20600380 .00000122 00000-0 27746-4 0 9999 2 39427 97.6613 17.2700 0112542 248.7186 110.1973 14.67774815278028 GOMX-1 1 39430U 13066Q 19031.72647982 .00000213 00000-0 47804-4 0 9997 2 39430 97.7275 357.5190 0150961 329.8967 29.3621 14.59190801276482 LO-74 1 39440U 13066AA 19031.77724167 .00000163 00000-0 29581-4 0 9990 2 39440 97.5994 38.3872 0080556 172.0146 188.2369 14.75786170279631 AO-73 1 39444U 13066AE 19031.48645330 .00000228 00000-0 34331-4 0 9997 2 39444 97.5700 54.5010 0059454 120.9109 239.7969 14.81851926279466 SPROUT 1 39770U 14029E 19031.70845743 .00000437 00000-0 54748-4 0 9990 2 39770 97.8803 135.9904 0009157 171.3566 188.7803 14.87155609254322 DUCHIFAT-1 1 40021U 14033M 19030.98829599 .00000397 00000-0 46436-4 0 9996 2 40021 97.9216 315.1618 0013629 142.2980 217.9196 14.90509068250885 NANOSATCBR1 1 40024U 14033Q 19031.74876435 .00000237 00000-0 30601-4 0 9995 2 40024 97.9129 313.6805 0012952 142.6944 217.5175 14.89741477250900 EO-79 1 40025U 14033R 19031.72847526 .00000236 00000-0 31174-4 0 9998 2 40025 97.9067 311.6397 0013088 147.9477 212.2538 14.88857445250790 DTUSAT-2 1 40030U 14033W 19031.01491209 .00000176 00000-0 25010-4 0 9994 2 40030 97.8999 309.3073 0012599 145.3825 214.8214 14.88457085250626 EO-80 1 40032U 14033Y 19031.82170767 .00000200 00000-0 27646-4 0 9993 2 40032 97.9006 310.1128 0012610 143.4872 216.7206 14.88397406250738 ANTELSAT 1 40034U 14033AA 19031.70409750 .00000165 00000-0 31963-4 0 9996 2 40034 97.7805 264.5693 0058673 180.2645 179.8543 14.74036886248344 VELOX-1 1 40057U 14034E 19031.80459884 .00000245 00000-0 41929-4 0 9998 2 40057 98.2190 152.0796 0010112 321.5328 38.5156 14.77576295247404 DAURIA DX 1 1 40071U 14037C 19031.75041454 .00000056 00000-0 14719-4 0 9998 2 40071 98.4037 178.7691 0007636 316.1328 43.9275 14.81229401246835 UKUBE-1 1 40074U 14037F 19031.87908083 .00000246 00000-0 36812-4 0 9993 2 40074 98.4139 186.1662 0003843 309.1274 50.9595 14.83957994247213 HODOYOSHI-1 1 40299U 14070B 19031.76485462 .00000405 00000-0 20065-4 0 9998 2 40299 97.3608 114.3287 0013289 159.7395 298.7681 15.23190395235275 CHUBUSAT-1 1 40300U 14070C 19031.80078749 .00000507 00000-0 25228-4 0 9991 2 40300 97.3421 109.3885 0019495 176.6790 324.1198 15.21889161235047 QSAT-EOS 1 40301U 14070D 19031.78770463 .00001336 00000-0 55146-4 0 9994 2 40301 97.3401 111.6891 0026354 162.2708 346.2993 15.25466911235261 FIREBIRD FU3 1 40377U 15003B 19031.43601049 .00001284 00000-0 55293-4 0 9994 2 40377 99.0966 343.5972 0128494 190.5149 169.3389 15.18163996220947 FIREBIRD FU4 1 40378U 15003C 19031.81916630 .00001274 00000-0 54813-4 0 9998 2 40378 99.0969 344.1267 0128736 189.1335 170.7551 15.18171462221007 GRIFEX 1 40379U 15003D 19031.78042627 .00000953 00000-0 45345-4 0 9994 2 40379 99.0958 338.9870 0136020 205.4872 153.9607 15.15030777220701 NO-84 1 40654U 15025D 19031.53304541 .00006068 00000-0 95517-4 0 05213 2 40654 054.9934 081.8150 0144029 333.2302 026.1413 15.44318591091080 NO-83 1 40655U 15025E 19031.35064616 .00032687 00000-0 24390-3 0 06206 2 40655 054.9728 354.4185 0082140 026.8798 333.6448 15.67965525091947 DEORBITSAIL 1 40719U 15032E 19031.76353620 .00000337 00000-0 55381-4 0 9997 2 40719 97.9242 286.2668 0017313 34.5242 325.7089 14.76626592191901 NUDT-PHONESAT 1 40900U 15049B 19031.82635594 .00001679 00000-0 76054-4 0 9997 2 40900 97.4405 42.5551 0011907 314.6096 169.7577 15.22207616186686 XW-2A 1 40903U 15049E 19031.77762590 .00001412 00000-0 35897-4 0 9996 2 40903 97.3584 73.6517 0012037 288.3405 162.4273 15.41308561189003 XW-2C 1 40906U 15049H 19031.88170351 .00000656 00000-0 38084-4 0 9999 2 40906 97.4654 36.2848 0014085 322.9707 152.2926 15.15487948186122 XW-2D 1 40907U 15049J 19031.73817786 .00000743 00000-0 42464-4 0 9998 2 40907 97.4623 35.8222 0013242 321.1226 124.2149 15.15661629186116 LILACSAT-2 1 40908U 15049K 19031.83979346 .00000008 00000-0 40562-5 0 9993 2 40908 97.4754 34.9743 0015121 325.2994 154.6349 15.13687438185959 XW-2E 1 40909U 15049L 19031.84530301 .00000708 00000-0 38672-4 0 9994 2 40909 97.4590 38.4189 0012629 317.7322 163.3601 15.17481647186285 XW-2F 1 40910U 15049M 19031.89234859 .00000741 00000-0 40854-4 0 9992 2 40910 97.4610 37.7039 0013750 313.8454 134.4023 15.16997875186129 XW-2B 1 40911U 15049N 19031.83731778 .00000349 00000-0 21859-4 0 9997 2 40911 97.4659 36.5327 0013170 321.9625 159.1533 15.15594471186029 DCBB 1 40912U 15049P 19031.80838052 .00001015 00000-0 51304-4 0 9997 2 40912 97.4511 40.9756 0013725 297.8619 186.7845 15.19273605186379 TW-1C 1 40926U 15051B 19031.86980360 .00007357 00000-0 12028-3 0 9995 2 40926 97.1573 78.3575 0009535 150.2612 296.3123 15.52781136188753 TW-1A 1 40928U 15051D 19031.82967051 .00002205 00000-0 57425-4 0 9993 2 40928 97.1625 66.1366 0010314 206.2911 208.6128 15.39898723187955 IO-86 1 40931U 15052B 19031.62792581 .00000785 00000-0 20439-4 0 9996 2 40931 5.9995 321.1277 0012006 4.9110 355.1881 14.76595843180825 LQSat 1 40958U 15057A 19031.80908270 -.00000008 00000-0 64543-5 0 9998 2 40958 97.9156 104.6175 0017637 327.9853 32.0272 14.73065146178504 AO-85 1 40967U 15058D 19031.49809727 .00000093 00000-0 27704-4 0 05841 2 40967 064.7732 218.0303 0211717 245.1941 112.7035 14.75862719087340 ATHENOXAT-1 1 41168U 15077C 19031.65760700 .00001741 00000-0 57486-4 0 9992 2 41168 14.9853 147.5090 0011473 333.4572 149.8162 15.13297675173032 ChubuSat-2 1 41338U 16012B 19031.15695699 .00000294 00000-0 16143-4 0 9997 2 41338 31.0035 305.1355 0013879 171.6311 188.4557 15.00087854162097 ChubuSat-3 1 41339U 16012C 19031.80816485 .00000280 00000-0 15018-4 0 9993 2 41339 31.0108 299.2738 0013539 185.0257 175.0254 15.00267962162184 Horyu-4 1 41340U 16012D 19031.07158348 .00000418 00000-0 25109-4 0 9996 2 41340 31.0051 296.6645 0014171 194.2501 165.7736 15.01159651162163 OUFTI-1 1 41458U 16025C 19031.81580644 .00001623 00000-0 86375-4 0 9991 2 41458 98.1126 111.6611 0169166 100.5172 261.5120 15.05375333151833 e-st@r-II 1 41459U 16025D 19031.80109014 .00000893 00000-0 49689-4 0 9994 2 41459 98.1128 111.3848 0170799 101.5015 260.5415 15.05048573151802 AAUSAT4 1 41460U 16025E 19031.80746364 .00001719 00000-0 90211-4 0 9996 2 41460 98.1077 112.3137 0160942 95.6023 266.3571 15.06754896151901 LO-87 1 41557U 16033B 19031.77798428 .00001191 00000-0 47836-4 0 9995 2 41557 97.4249 120.0921 0015481 68.1836 292.1048 15.26837359149048 NuSat2 1 41558U 16033C 19031.78738564 .00001230 00000-0 46648-4 0 9996 2 41558 97.4270 120.7070 0014569 70.4087 289.8724 15.28730691149064 Lapan A3 1 41603U 16040E 19031.77500322 .00000129 00000-0 91904-5 0 9995 2 41603 97.3816 93.7362 0013781 154.5685 345.4375 15.19660795144799 Swayam 1 41607U 16040J 19031.63328915 .00001283 00000-0 57629-4 0 9997 2 41607 97.3851 96.1511 0014451 150.9427 209.2617 15.22877496144860 Pratham 1 41783U 16059A 19030.82737675 .00000040 00000-0 16910-4 0 9997 2 41783 98.0883 93.3360 0034900 100.4523 260.0615 14.62969882125245 AlSat 1N 1 41789U 16059G 19031.68582967 .00000056 00000-0 19674-4 0 9997 2 41789 98.0899 95.8755 0029780 88.1208 272.3403 14.64212883125453 ScatSat 1 41790U 16059H 19031.17160544 .00000003 00000-0 11794-4 0 9993 2 41790 98.2302 79.4414 0019435 110.5027 249.8256 14.50888297124245 TY-1 1 41844U 16066D 19031.83202840 .00001259 00000-0 54967-4 0 9993 2 41844 97.4068 40.8560 0014329 318.9568 163.9467 15.23906899123698 Pegasus-1 1 41846U 16066F 19030.94926214 .00000163 00000-0 36286-4 0 9991 2 41846 098.7308 068.8080 0366759 290.7510 065.4742 14.37484532116625 CAS-2T 1 41847U 16066G 19031.76588043 .00000023 00000-0 14988-4 0 9997 2 41847 98.7257 70.1542 0364949 285.2158 70.8955 14.37954681117178 EO-88 1 42017U 17008BX 19030.81683897 .00001188 00000-0 50335-4 0 9991 2 42017 97.4214 99.2530 0004878 307.8016 52.2780 15.25097339108752 HAVELSAT 1 42700U 98067LH 19031.74954609 .00175357 23793-4 36474-3 0 9994 2 42700 51.6207 249.1121 0002270 197.8766 162.2164 15.98720783 98178 SOMP2 1 42701U 98067LJ 19031.74575916 .00095561 14614-4 28562-3 0 9994 2 42701 51.6302 254.5355 0001431 162.8920 197.2135 15.92336160 98099 PHOENIX 1 42706U 98067LP 19031.78632775 .00044085 00000-0 20483-3 0 9999 2 42706 51.6267 260.8745 0000516 181.7551 178.3450 15.82933046 97937 X-CubeSat 1 42707U 98067LQ 19032.01077651 .01274226 11815-4 69741-3 0 9996 2 42707 51.6141 242.3749 0006725 260.2020 99.8746 16.18850044 98189 qbee 1 42708U 98067LR 19031.78217439 .00189557 25956-4 38783-3 0 9994 2 42708 51.6211 250.1087 0003144 221.2117 138.8655 15.98981893 98026 ZA-AeroSat 1 42713U 98067LU 19031.27346198 .00039665 00000-0 20032-3 0 9990 2 42713 51.6336 268.7760 0000152 246.0164 114.0822 15.81185066 97443 SpaceCube 1 42717U 98067LY 19031.77723644 .00181112 24520-4 38776-3 0 9990 2 42717 51.6163 250.7086 0002581 202.4228 157.6668 15.98193635 97093 NJUST-1 1 42722U 98067MB 19031.82463514 .00032478 00000-0 18736-3 0 9996 2 42722 51.6391 270.1739 0002855 56.7210 352.9612 15.78349665 96540 LO-90 1 42725U 98067ME 19031.80239282 .00088858 00000-0 29103-3 0 9993 2 42725 51.6322 258.6080 0002430 138.9673 272.4518 15.89837390 96609 nSIGHT1 1 42726U 98067MF 19031.14733459 .00012595 00000-0 12581-3 0 9993 2 42726 51.6384 294.5149 0004670 19.6165 340.5010 15.66026814 96073 SNUSAT 1B 1 42727U 98067MG 19031.76893257 .00084783 00000-0 28858-3 0 9997 2 42727 51.6278 259.1430 0000747 340.4499 19.6478 15.89092820 96552 QBITO 1 42728U 98067MH 19031.81603756 .00304409 52351-4 46524-3 0 9997 2 42728 51.6241 248.9487 0003767 227.1823 132.8873 16.03856905 96532 Aalto-2 1 42729U 98067MJ 19031.78435913 .00691774 28218-3 57668-3 0 9991 2 42729 51.6163 246.2247 0006031 247.4805 112.5572 16.13176058 96573 SUSat 1 42730U 98067MK 19031.78462795 .00107664 15450-4 33739-3 0 9999 2 42730 51.6286 256.2912 0001510 176.2951 183.8066 15.91346195 96439 PolyITAN-2-SAU 1 42732U 98067MM 19031.82582937 .00941413 58894-3 63790-3 0 9993 2 42732 51.6196 245.0018 0006856 262.3649 97.6589 16.16147754 96635 Aoxiang-1 1 42735U 98067MQ 19031.83105233 .00034016 00000-0 18665-3 0 9993 2 42735 51.6308 268.6235 0003275 51.8534 359.1725 15.79437671 97694 BeEagleSat 1 42736U 98067MR 19031.77500565 .00053462 00000-0 22440-3 0 9996 2 42736 51.6289 262.2706 0002053 54.4888 305.6306 15.84993864 96462 CAS-4B 1 42759U 17034B 19031.76318080 .00000182 00000-0 24737-4 0 9997 2 42759 43.0191 268.2565 0009341 99.9903 295.3354 15.09475619 89990 CAS-4A 1 42761U 17034D 19031.89172454 .00000036 00000-0 15746-4 0 9995 2 42761 43.0191 267.1746 0009782 102.8629 74.1921 15.09551026 90004 UCLSat 1 42765U 17036A 19030.80046255 .00000975 00000-0 45155-4 0 9999 2 42765 097.3718 091.6572 0011629 006.5883 353.5504 15.22388980089929 NIUSat 1 42766U 17036B 19030.75332351 .00000761 00000-0 37529-4 0 9998 2 42766 97.3716 90.3702 0015441 353.7490 6.3550 15.20824844 89113 LituanicaSAT 2 1 42768U 17036D 19031.62820715 .00001662 00000-0 75153-4 0 9999 2 42768 97.3744 92.0248 0014880 351.5140 8.5843 15.22227815 89301 Aalto 1 1 42775U 17036L 19031.39506857 .00000686 00000-0 33875-4 0 9999 2 42775 97.3706 91.2927 0013759 352.3235 7.7788 15.21100361 89180 URSA MAIOR 1 42776U 17036M 19030.64348034 .00000680 00000-0 33507-4 0 9994 2 42776 97.3715 90.6628 0013605 355.1019 5.0082 15.21215126 89075 Max Valier Sat 1 42778U 17036P 19031.38655315 .00000761 00000-0 36593-4 0 9999 2 42778 97.3747 91.9737 0012181 357.7381 2.3798 15.21739857 89206 Pegasus 1 42784U 17036V 19030.93430102 .00000908 00000-0 42541-4 0 9994 2 42784 097.3721 091.6528 0012166 005.9779 354.1600 15.22163118089152 NUDATSat 1 42787U 17036Y 19031.20947849 .00001228 00000-0 55155-4 0 9990 2 42787 97.3755 92.3915 0013107 1.2365 358.8909 15.22965819 89067 SUCHAI 1 1 42788U 17036Z 19031.10781149 .00001117 00000-0 51115-4 0 9998 2 42788 97.3724 92.0347 0011697 5.1491 354.9864 15.22518325 89260 SKCUBE 1 42789U 17036AA 19030.58988156 .00000992 00000-0 45816-4 0 9998 2 42789 097.3722 091.4942 0011617 007.0869 353.0529 15.22442515089103 VZLUSAT 1 1 42790U 17036AB 19030.73678792 .00001328 00000-0 59426-4 0 9995 2 42790 097.3732 091.9305 0011169 006.4860 353.6519 15.22974943089144 VENTA 1 1 42791U 17036AC 19030.82885173 .00000971 00000-0 44917-4 0 9991 2 42791 097.3720 091.7781 0011256 007.1293 353.0102 15.22469044089135 Robusta 1B 1 42792U 17036AD 19031.38994594 .00001101 00000-0 50322-4 0 9995 2 42792 97.3720 92.3920 0011144 5.4802 354.6554 15.22604604 89244 D-SAT 1 42794U 17036AF 19030.82607398 .00000275 00000-0 29635-4 0 9992 2 42794 97.5610 81.4844 0125458 244.0864 114.7380 14.91010703 87643 BIRD-J 1 42820U 98067MU 19031.69589307 .00051841 00000-0 23405-3 0 9993 2 42820 51.6303 267.0447 0000520 201.7998 158.2983 15.83473696 89857 BIRD-G 1 42821U 98067MV 19031.77393126 .00046076 00000-0 23027-3 0 9999 2 42821 51.6264 269.0579 0000540 214.0580 146.0388 15.81344288 89810 BIRD-M 1 42822U 98067MW 19031.10877752 .00049788 00000-0 23645-3 0 9998 2 42822 51.6320 271.4103 0000078 172.0340 188.0664 15.82410623 89728 BIRD-B 1 42823U 98067MX 19030.88155172 .00049275 00000-0 22861-3 0 9998 2 42823 51.6293 272.1379 0001084 335.7718 24.3234 15.82915319 89699 BIRD-N 1 42824U 98067MY 19031.15138856 .00047190 00000-0 22666-3 0 9997 2 42824 51.6328 271.7554 0001722 7.1080 352.9947 15.82190962 89713 TechnoSat 1 42829U 17042E 19031.76138204 .00000012 00000-0 66697-5 0 9996 2 42829 97.5797 290.2442 0014825 153.6641 206.5334 14.90917772 84383 TOMSK-TPU 120 1 42910U 98067MZ 19031.84122278 .00021393 00000-0 15704-3 0 9992 2 42910 51.6360 281.5378 0003642 17.7700 27.0119 15.73070696 83263 TANYUSHA 1 1 42911U 98067NA 19031.74828271 .00031402 00000-0 19653-3 0 9997 2 42911 51.6292 277.7937 0002494 16.7775 89.6379 15.76528516 83287 TANYUSHA 2 1 42912U 98067NB 19031.69692712 .00027458 00000-0 18510-3 0 9998 2 42912 51.6378 280.5545 0002720 32.5926 61.9261 15.74898021 83266 TNS 0-2 1 42914U 98067ND 19030.94600280 .00024930 00000-0 18218-3 0 9993 2 42914 051.6339 286.9873 0002966 013.9705 346.1375 15.73072808083089 QIKCOM-1 1 42983U 98067NF 19031.76343587 .00003509 00000-0 52873-4 0 9999 2 42983 51.6404 312.1598 0003661 339.5653 20.5193 15.57800232 71839 AO-91 1 43017U 17073E 19031.73501861 .00000371 00000-0 35165-4 0 9993 2 43017 97.7210 318.5204 0257419 247.5050 109.8726 14.78377318 64874 EcAMSat 1 43019U 98067NG 19031.78528448 .00005465 00000-0 73872-4 0 9998 2 43019 51.6411 309.3343 0004008 313.2024 46.8634 15.59500962154192 PICSAT 1 43132U 18004X 19031.17257309 .00001002 00000-0 45371-4 0 9991 2 43132 97.5065 99.1690 0010470 29.2948 330.8873 15.23193990 58419 AO-92 1 43137U 18004AC 19031.42075715 .00000860 00000-0 39433-4 0 9996 2 43137 97.5059 99.4307 0010077 30.5433 329.6389 15.23165772 58440 TianYi 2 1 43155U 18008A 19031.86981500 .00000957 00000-0 61058-4 0 9991 2 43155 97.5022 107.2246 0019343 80.1143 10.7526 15.10914622 57019 Zhou Enlai 1 43156U 18008B 19031.81380713 .00001041 00000-0 67037-4 0 9994 2 43156 97.5065 107.0872 0016473 77.9134 61.7726 15.10405292 56986 TianYi 6 1 43158U 18008D 19031.82268698 .00000800 00000-0 52947-4 0 9990 2 43158 97.5021 106.7315 0015293 74.7208 59.5923 15.10043177 56955 S-Net G 1 43186U 18014G 19031.69485115 .00000731 00000-0 69239-4 0 9993 2 43186 97.7176 302.0931 0012679 105.5344 254.7278 14.96573783 54496 S-Net H 1 43187U 18014H 19031.69467786 .00000729 00000-0 69042-4 0 9997 2 43187 97.7175 302.0847 0012696 105.4167 254.8458 14.96573675 54494 S-Net J 1 43188U 18014J 19031.69447878 .00000728 00000-0 68944-4 0 9997 2 43188 97.7177 302.0966 0012687 105.5050 254.7573 14.96574503 54499 S-Net K 1 43189U 18014K 19031.69476258 .00000725 00000-0 68686-4 0 9992 2 43189 97.7174 302.0829 0012688 105.4418 254.8206 14.96573337 53041 FMN 1 1 43192U 18015A 19030.92214486 .00001826 00000-0 78747-4 0 9997 2 43192 097.3802 160.6712 0018117 064.3420 295.9669 15.23688571055181 Shaonian Xing 1 43199U 18015H 19030.92079272 .00001382 00000-0 59138-4 0 9996 2 43199 097.3587 160.0717 0019113 074.9607 285.3728 15.24346395055228 1KUNS-PF 1 43466U 98067NP 19031.80519285 .00013799 00000-0 16556-3 0 9990 2 43466 51.6395 311.6911 0000638 111.1740 248.9322 15.61214971 41347 UBAKUSAT 1 43467U 98067NQ 19031.78956002 .00010146 00000-0 13117-3 0 9993 2 43467 51.6391 313.0830 0001623 255.8662 104.2151 15.59594187 41334 Irazu 1 43468U 98067NR 19031.20040136 .00015648 00000-0 17830-3 0 9991 2 43468 51.6391 313.6485 0000899 115.3346 244.7742 15.62441867141258 EnduroSat One 1 43551U 98067NZ 19031.26989257 .00010576 00000-0 13983-3 0 9996 2 43551 51.6396 317.8525 0005588 355.5995 4.4948 15.58934459 31453 EQUISat 1 43552U 98067PA 19031.36533299 .00008700 00000-0 11859-3 0 9995 2 43552 51.6405 317.7436 0005955 354.1295 5.9627 15.58385946 31429 UiTMSat 1 1 43589U 98067PD 19031.23310212 .00009080 00000-0 12464-3 0 9994 2 43589 51.6383 319.0992 0005392 4.3576 355.7462 15.58132999 27131 Maya 1 1 43590U 98067PE 19031.03773174 .00009408 00000-0 12881-3 0 9991 2 43590 51.6390 320.0462 0005568 4.6637 355.4406 15.58152717 27035 Bhutan 1 1 43591U 98067PF 19030.84070027 .00008787 00000-0 12055-3 0 9999 2 43591 51.6399 320.9827 0005592 5.0986 355.0062 15.58197186 27008 SiriusSat 1 1 43595U 98067PG 19030.95875040 .00009068 00000-0 12683-3 0 9993 2 43595 051.6389 321.0145 0002666 314.7451 045.3323 15.57633584026196 SiriusSat 2 1 43596U 98067PH 19031.80896089 .00010341 00000-0 14441-3 0 9995 2 43596 51.6402 316.9601 0003330 319.4591 40.6153 15.57495089 26329 Tanusha-3 1 43597U 98067PJ 19031.77369455 .00011848 00000-0 16037-3 0 9990 2 43597 51.6381 316.6892 0002866 339.5440 20.5437 15.58172322 26329 SurfSat 1 43614U 18070B 19031.71889644 .00002375 00000-0 65796-4 0 9999 2 43614 93.0393 306.6537 0018973 113.6891 246.6355 15.36871336 21214 CP-7 DAVE 1 43615U 18070C 19031.19861284 .00002055 00000-0 57031-4 0 9990 2 43615 93.0394 306.4389 0018965 115.3335 244.9885 15.36835548 21137 ELFIN-B 1 43616U 18070D 19031.18337708 .00003099 00000-0 84974-4 0 9994 2 43616 93.0354 306.3794 0019935 118.6046 241.7216 15.37146959 21131 ELFIN-A 1 43617U 18070E 19030.98505503 .00002947 00000-0 80787-4 0 9991 2 43617 93.0410 306.4043 0019060 115.9575 244.3645 15.37181720 21106 STARS-Me Mother 1 43640U 98067PQ 19030.81956926 .00006864 00000-0 10305-3 0 9992 2 43640 51.6398 323.0915 0004813 300.5000 59.5516 15.56153959 18085 CubeBel 1 1 43666U 18083E 19031.79870402 .00000973 00000-0 52206-4 0 9994 2 43666 97.5329 57.1475 0014019 311.9945 133.8470 15.17273818 14372 Changshagaoxin 1 43669U 18083H 19031.69605413 .00000858 00000-0 47418-4 0 9995 2 43669 97.5183 56.7663 0009701 304.2218 55.8095 15.16541934 14313 Ten-Koh 1 43677U 18084G 19031.76573877 -.00000322 00000-0 -27384-4 0 9999 2 43677 97.8380 146.5264 0016865 22.5265 337.6685 14.90118888 14078 Diwata-2 1 43678U 18084H 19031.74368705 .00000187 00000-0 24363-4 0 9991 2 43678 97.8384 146.7194 0011238 45.3314 314.8834 14.91522858 14085 IRVINE 01 1 43693U 18088D 19031.19824528 .00002153 00000-0 95669-4 0 9993 2 43693 85.0338 49.5261 0018150 349.2572 10.8279 15.20746352 12317 Reaktor Hello World 1 43743U 18096AA 19031.78486609 .00000947 00000-0 39252-4 0 9992 2 43743 97.4776 101.8426 0020132 100.7981 39.5274 15.26260087 9690 MinXSS-2 1 43758U 18099A 19031.84083446 -.00000080 00000-0 -19690-5 0 9995 2 43758 97.7612 105.4289 0017023 69.7079 290.5969 14.95296086 8830 OBJECT B 1 43759U 18099B 19031.78265663 -.00000249 00000-0 -17370-4 0 9991 2 43759 97.7613 105.3568 0015568 63.5004 296.7811 14.95062360 8811 OBJECT C 1 43760U 18099C 19031.78389613 .00000216 00000-0 24993-4 0 9996 2 43760 97.7606 105.3439 0015159 69.2550 291.0293 14.95054009 8821 OBJECT D 1 43761U 18099D 19030.91625314 -.00000272 00000-0 -19550-4 0 9999 2 43761 097.7637 104.5082 0015835 071.8935 288.4009 14.94965710008697 OBJECT F 1 43763U 18099F 19031.83300585 .00000801 00000-0 77473-4 0 9997 2 43763 97.7602 105.4323 0014950 69.1549 291.1261 14.95490880 8836 OBJECT J 1 43766U 18099J 19031.80723655 .00000563 00000-0 57528-4 0 9998 2 43766 97.7600 105.3127 0012769 67.9953 292.2622 14.94444767 8823 AO-95 1 43770U 18099N 19031.19596476 .00000247 00000-0 28031-4 0 9990 2 43770 97.7614 104.7369 0016025 77.6141 282.6872 14.94666347 8730 OBJECT P 1 43771U 18099P 19031.19567332 .00000259 00000-0 29134-4 0 9998 2 43771 97.7614 104.7368 0016046 77.6575 282.6441 14.94675130 8725 RANGE-A 1 43772U 18099Q 19031.19335434 .00000279 00000-0 30984-4 0 9992 2 43772 97.7663 104.7766 0015462 66.1431 294.1407 14.94739582 8729 RANGE-B 1 43773U 18099R 19031.19332439 .00000079 00000-0 12584-4 0 9999 2 43773 97.7562 104.7060 0014872 66.2366 294.0412 14.94729134 8724 OBJECT T 1 43775U 18099T 19031.18819588 -.00000106 00000-0 -43932-5 0 9990 2 43775 97.7623 104.7590 0016019 69.6369 290.6570 14.94859776 8719 OBJECT U 1 43776U 18099U 19031.18814402 -.00000152 00000-0 -86554-5 0 9999 2 43776 97.7621 104.7590 0016032 69.4653 290.8286 14.94858408 8714 OBJECT V 1 43777U 18099V 19031.40201065 .00000533 00000-0 54741-4 0 9993 2 43777 97.7570 104.9010 0017021 71.2926 289.0140 14.94419557 8751 OBJECT W 1 43778U 18099W 19031.19201643 .00000121 00000-0 16405-4 0 9990 2 43778 97.7523 104.6737 0015440 74.5739 285.7186 14.94767470 8308 OBJECT X 1 43779U 18099X 19031.18816468 -.00000132 00000-0 -67719-5 0 9996 2 43779 97.7623 104.7588 0016021 69.5402 290.7537 14.94859036 8713 MOVE-II 1 43780U 18099Y 19031.18723684 .00000193 00000-0 22984-4 0 9994 2 43780 97.7599 104.7330 0014925 76.3675 283.9206 14.94901198 8715 SNUSat 2 1 43782U 18099AA 19031.18448421 -.00000128 00000-0 -64247-5 0 9998 2 43782 97.7610 104.7494 0014093 66.3440 293.9258 14.94960301 8727 OBJECT AC 1 43784U 18099AC 19031.18158297 -.00000151 00000-0 -84582-5 0 9999 2 43784 97.7575 104.7245 0016524 73.3575 286.9458 14.95034725 8739 ITASat 1 1 43786U 18099AE 19031.18083882 -.00000199 00000-0 -12801-4 0 9994 2 43786 97.7630 104.7692 0016602 72.2131 288.0899 14.95053030 8734 OBJECT AH 1 43789U 18099AH 19031.16626435 .00000146 00000-0 18453-4 0 9991 2 43789 97.7610 104.7668 0017317 71.2292 289.0806 14.95435388 8424 EAGLET 1 1 43790U 18099AJ 19031.16572716 -.00000012 00000-0 41863-5 0 9990 2 43790 97.7622 104.7813 0014992 77.1835 283.1060 14.95438842 8420 ESEO 1 43792U 18099AL 19031.16448297 -.00000018 00000-0 36570-5 0 9993 2 43792 97.7605 104.7720 0014861 74.5650 285.7211 14.95465957 8480 CSIM 1 43793U 18099AM 19031.16269839 .00000445 00000-0 45311-4 0 9992 2 43793 97.7556 104.7246 0014498 73.7917 286.4898 14.95535596 8455 Astrocast 0.1 1 43798U 18099AS 19030.82199074 .00000453 00000-0 45921-4 0 9998 2 43798 97.7610 104.4509 0013839 61.3468 298.9143 14.95676717 8667 OBJECT AV 1 43801U 18099AV 19031.77930060 -.00000141 00000-0 -75635-5 0 9998 2 43801 97.7570 105.3186 0015526 64.3933 295.8890 14.95153560 8811 JO-97 1 43803U 18099AX 19031.77903823 -.00000142 00000-0 -76396-5 0 9993 2 43803 97.7586 105.3338 0016564 71.2700 289.0317 14.95163857 8810 Suomi 100 1 43804U 18099AY 19031.77877556 -.00000173 00000-0 -10396-4 0 9998 2 43804 97.7585 105.3334 0016639 71.3600 288.9425 14.95168883 8822 Al Farabi 2 1 43805U 18099AZ 19031.77800018 -.00000055 00000-0 29509-6 0 9994 2 43805 97.7586 105.3345 0016671 71.5724 288.7308 14.95195859 8822 OBJECT BA 1 43806U 18099BA 19031.77784573 -.00000256 00000-0 -17962-4 0 9994 2 43806 97.7586 105.3323 0016355 69.6652 290.6324 14.95188329 8516 OBJECT BD 1 43809U 18099BD 19031.83956134 -.00000196 00000-0 -12485-4 0 9996 2 43809 97.7603 105.4228 0016692 72.2564 288.0477 14.95321670 8529 OBJECT BE 1 43810U 18099BE 19031.77253973 -.00000227 00000-0 -15337-4 0 9996 2 43810 97.7515 105.2917 0015894 67.7662 292.5242 14.95320965 8365 PWSat 2 1 43814U 18099BJ 19031.11232654 .00009271 00000-0 83877-3 0 9990 2 43814 97.7644 104.6924 0007111 95.4470 264.7368 14.95620134 8115 OBJECT BQ 1 43820U 18099BQ 19031.77304360 -.00000211 00000-0 -13906-4 0 9997 2 43820 97.7561 105.3272 0013988 63.7554 296.5103 14.95309339 8216 CHOMPTT 1 43855U 18104G 19031.38792595 .00000043 00000-0 00000 0 0 9997 2 43855 85.0396 147.8541 0020241 100.8879 259.4684 15.22115137 6989 ISAT 1 43879U 18111D 19031.19775929 -.00000038 00000-0 17810-5 0 9990 2 43879 97.7261 301.1484 0014272 123.5674 236.6912 14.95877705 3241 UWE-4 1 43880U 18111E 19031.79394889 -.00000147 00000-0 -78959-5 0 9993 2 43880 97.7271 301.7548 0013396 122.3881 237.8638 14.96123793 3334 Sparrow 1 43881U 18111F 19030.92350260 -.00000221 00000-0 -14415-4 0 9992 2 43881 097.7277 300.8992 0013495 123.7489 236.5020 14.96167647005196 Lume 1 1 43908U 18111AJ 19031.80103243 .00000939 00000-0 41359-4 0 9998 2 43908 97.2994 300.7553 0023339 115.8612 244.5035 15.24019729 5449 OrigamiSat 1 1 43933U 19003B 19031.78195807 .00000592 00000-0 29305-4 0 9993 2 43933 97.3029 93.6538 0017264 205.3650 294.8588 15.21414832 2084 NEXUS 1 43937U 19003F 19031.82287863 .00000968 00000-0 43570-4 0 9993 2 43937 97.2975 93.7179 0024053 194.8195 257.7677 15.23210294 2095 /EX